[[{"header":{"parameterUnit":"m.s-1","parameterCategory":1,"la1":30.2991,"la2":30.254,"lo1":-89.0895,"lo2":-89.0444,"dy":0.0017,"dx":0.0017,"nx":28,"ny":28,"refTime":"2024-05-05T03:00:00:Z","depth":0,"parameterNumber":2,"parameterNumberName":"U-component_of_WINDS"},"data":[0,0,0,0,0,0,0,0,0,0,0,0,0,0,0,0,0,0,0,0,0,0,0,0,0,0,0,0,0,0,0,0,0,0,0,0,0,0,0,0,0,0,0,0,0,0,0,0,0,0,0,0,0,0,0,0,0,0,-2.9071,-2.9071,0,-2.912,-2.912,-2.9121,-2.9109,-2.9108,-2.9107,-2.9106,-2.9156,-2.9158,-2.916,0,0,0,0,0,0,0,0,0,0,0,0,0,-2.8968,-2.897,-2.9071,-2.9071,-2.9072,-2.912,-2.912,-2.9121,-2.9109,-2.9108,-2.9107,-2.9106,-2.9155,-2.9157,-2.916,0,0,0,0,0,0,0,0,0,0,0,0,0,-2.9014,-2.897,-2.9071,-2.9072,-2.9072,-2.9119,-2.912,-2.9121,-2.9109,-2.9108,-2.9107,-2.9105,-2.9154,-2.9157,-2.916,-2.9209,0,0,-2.917,-2.9172,0,0,0,0,0,0,0,0,-2.9012,-2.9018,-2.9071,-2.9072,-2.9073,-2.9107,-2.9102,-2.9151,-2.911,-2.9095,-2.9106,-2.9105,-2.914,-2.9145,-2.9157,-2.9211,-2.9213,-2.9171,-2.9173,-2.9174,-2.9175,0,0,0,0,0,0,0,-2.9008,-2.9016,-2.909,-2.9072,-2.9073,-2.907,-2.9075,-2.9111,-2.9125,-2.9096,-2.9096,-2.9102,-2.9141,-2.9154,-2.9158,-2.9214,-2.9171,-2.9174,-2.9176,-2.9177,-2.9312,-2.9313,0,0,0,0,0,0,-2.9004,-2.9013,-2.9089,-2.9092,-2.9038,-2.9073,-2.9079,-2.9097,-2.9125,-2.9128,-2.9103,-2.9101,-2.9149,-2.9154,-2.916,-2.9219,-2.9174,-2.9177,-2.9179,-2.931,-2.9312,-2.9314,0,0,0,0,0,0,-2.9002,-2.9011,-2.9087,-2.9052,-2.9062,-2.9076,-2.9097,-2.9099,-2.9112,-2.913,-2.9132,-2.9114,-2.9148,-2.9155,-2.9197,-2.922,-2.9179,-2.9182,-2.9308,-2.9311,-2.9313,-2.9337,0,0,0,0,0,0,-2.8999,-2.9011,-2.9029,-2.9053,-2.9063,-2.9123,-2.9099,-2.9101,-2.9118,-2.9116,-2.9141,-2.9143,-2.9147,-2.9192,-2.92,-2.9224,-2.9184,-2.9306,-2.9309,-2.9312,-2.9334,-2.9339,-2.9344,0,0,0,0,0,-2.8996,-2.9033,-2.903,-2.9039,-2.9087,-2.9124,-2.913,-2.9135,-2.912,-2.9139,-2.915,-2.9142,-2.9217,-2.9197,-2.9206,-2.9231,-2.9305,-2.9308,-2.9312,-2.9331,-2.9338,-2.9344,0,0,0,0,0,0,-2.9012,-2.9037,-2.9033,-2.9079,-2.91,-2.9122,-2.9146,-2.9142,-2.9167,-2.9164,-2.9168,-2.9174,-2.9217,-2.9228,-2.9205,-2.9279,-2.9258,-2.9264,-2.927,-2.9277,-2.9282,-2.9278,-2.9187,0,0,0,0,0,-2.9021,-2.9049,-2.9069,-2.9108,-2.9119,-2.9131,-2.9147,-2.9149,-2.917,-2.9179,-2.9193,-2.9214,-2.9242,-2.926,-2.9287,-2.9336,-2.9341,-2.9358,-2.9363,-2.9367,-2.9372,-2.9399,-2.9406,-2.9326,-2.9326,-2.9325,0,0,-2.9039,-2.9056,-2.9074,-2.9112,-2.9128,-2.9157,-2.9138,-2.917,-2.9192,-2.9183,-2.9224,-2.9236,-2.9259,-2.9305,-2.9326,-2.9316,-2.9395,-2.9372,-2.9375,-2.9377,-2.9403,-2.9411,-2.9418,-2.9328,-2.9328,-2.9327,0,0,-2.9088,-2.9104,-2.9138,-2.9155,-2.918,-2.9188,-2.9196,-2.922,-2.9227,-2.9268,-2.9263,-2.9289,-2.9337,-2.9354,-2.9369,-2.9427,-2.9421,-2.9435,-2.9462,-2.9489,-2.9495,-2.9501,-2.9521,-2.9528,-2.944,-2.944,-2.944,0,-2.9108,-2.9152,-2.9157,-2.9189,-2.9206,-2.9201,-2.9236,-2.9252,-2.9284,-2.9296,-2.9285,-2.9346,-2.9361,-2.9411,-2.9425,-2.9438,-2.9448,-2.9432,-2.9494,-2.95,-2.9505,-2.9524,-2.9532,-2.9442,-2.9441,-2.9441,-2.9441,0,-2.9175,-2.9206,-2.9231,-2.9263,-2.9283,-2.9316,-2.9326,-2.9346,-2.9347,-2.9356,-2.9398,-2.9417,-2.9447,-2.946,-2.946,-2.951,-2.9503,-2.9493,-2.9472,-2.9514,-2.9532,-2.954,-2.9444,-2.9443,-2.9443,-2.9442,0,0,-2.9234,-2.9269,-2.9278,-2.9293,-2.932,-2.9344,-2.9378,-2.9408,-2.9425,-2.9448,-2.9477,-2.9518,-2.9509,-2.9527,-2.9529,-2.9552,-2.9597,-2.954,-2.954,-2.9549,-2.9653,-2.966,-2.9668,-2.9593,-2.9595,-2.9596,-2.9651,0,-2.9286,-2.9345,-2.9351,-2.9404,-2.9433,-2.9429,-2.9458,-2.9478,-2.9488,-2.9514,-2.9525,-2.9555,-2.9541,-2.9551,-2.9574,-2.9586,-2.9617,-2.9583,-2.962,-2.9621,-2.9613,-2.9678,-2.9685,-2.9736,-2.9658,-2.9659,-2.966,0,-2.9353,-2.9378,-2.9434,-2.9458,-2.9471,-2.9497,-2.9526,-2.9551,-2.9574,-2.9579,-2.9599,-2.9599,-2.9634,-2.9613,-2.9662,-2.9638,-2.9654,-2.9662,-2.9664,-2.9667,-2.9642,-2.9682,-2.9752,-2.976,-2.9671,-2.9671,-2.967,0,-2.939,-2.9438,-2.9478,-2.9491,-2.952,-2.9539,-2.9552,-2.9574,-2.9592,-2.9617,-2.9629,-2.9658,-2.9674,-2.9697,-2.9705,-2.9688,-2.9753,-2.9732,-2.9759,-2.9758,-2.9772,-2.977,-2.9845,-2.9783,-2.9783,-2.9783,-2.9782,0,-2.9446,-2.9481,-2.9495,-2.952,-2.9558,-2.9565,-2.9603,-2.9615,-2.9635,-2.9662,-2.9661,-2.9686,-2.9696,-2.9723,-2.9729,-2.9769,-2.9776,-2.9781,-2.9783,-2.9781,-2.9781,-2.9791,-2.9787,-2.9785,-2.9784,-2.9784,-2.9783,0,-2.9494,-2.9505,-2.9548,-2.9573,-2.958,-2.9607,-2.9628,-2.9652,-2.9662,-2.9696,-2.9705,-2.9721,-2.9753,-2.9763,-2.9802,-2.9806,-2.9852,-2.985,-2.9844,-2.9844,-2.987,-2.9867,-2.9953,-2.9965,-2.9896,-2.9896,-2.9897,0,-2.9529,-2.9555,-2.9583,-2.9601,-2.9615,-2.9644,-2.9663,-2.9671,-2.969,-2.9719,-2.974,-2.9771,-2.9797,-2.9848,-2.9863,-2.9893,-2.9892,-2.992,-2.9896,-2.9894,-2.9892,-2.989,-2.9893,-2.9924,-2.9925,-2.9925,-2.9926,0,-2.959,-2.9594,-2.9621,-2.965,-2.9673,-2.9696,-2.9719,-2.9733,-2.9745,-2.9767,-2.98,-2.982,-2.986,-2.9891,-2.9922,-2.9935,-2.9933,-2.9933,-2.9941,-2.994,-2.9935,-2.9938,-2.9856,-2.9931,-2.9931,-2.993,-2.993,-2.993,-2.9632,-2.9656,-2.9679,-2.9709,-2.9727,-2.9748,-2.9772,-2.9785,-2.9813,-2.9845,-2.9849,-2.9884,-2.9907,-2.9948,-2.9964,-2.9992,-2.9984,-2.9995,-2.9998,-3.0,-3.0002,-2.9931,-2.9997,-2.9997,-2.9997,-2.9997,-2.9997,0,-2.9693,-2.9708,-2.9735,-2.9767,-2.9791,-2.9787,-2.9812,-2.9832,-2.9863,-2.9885,-2.9911,-2.9949,-2.998,-2.9998,-3.0029,-3.0048,-3.0047,-3.0056,-3.0054,-3.0057,-3.0007,-2.9997,-3.0055,-3.0055,-3.0055,-3.0055,-3.0055,-3.0055,-2.9727,-2.9767,-2.9774,-2.9823,-2.9837,-2.9872,-2.9886,-2.9906,-2.9924,-2.9966,-2.9992,-3.0004,-3.0024,-3.0057,-3.0085,-3.009,-3.0101,-3.011,-3.0114,-3.0067,-3.0061,-3.0055,-3.0046,-3.0113,-3.0113,-3.0161,-3.0162,-3.0162]},{"header":{"parameterUnit":"m.s-1","parameterCategory":1,"la1":30.2991,"la2":30.254,"lo1":-89.0895,"lo2":-89.0444,"dy":0.0017,"dx":0.0017,"nx":28,"ny":28,"refTime":"2024-05-05T03:00:00:Z","depth":0,"parameterNumber":3,"parameterNumberName":"V-component_of_WINDS"},"data":[0,0,0,0,0,0,0,0,0,0,0,0,0,0,0,0,0,0,0,0,0,0,0,0,0,0,0,0,0,0,0,0,0,0,0,0,0,0,0,0,0,0,0,0,0,0,0,0,0,0,0,0,0,0,0,0,0,0,5.0139,5.0139,0,5.0169,5.0169,5.017,5.0127,5.0125,5.0124,5.0122,5.0151,5.0153,5.0155,0,0,0,0,0,0,0,0,0,0,0,0,0,5.0041,5.0043,5.0139,5.0139,5.0139,5.0169,5.0169,5.017,5.0127,5.0125,5.0124,5.0122,5.015,5.0152,5.0155,0,0,0,0,0,0,0,0,0,0,0,0,0,5.0078,5.0043,5.0138,5.0122,5.0121,5.0169,5.0169,5.017,5.0128,5.0125,5.0123,5.0121,5.0149,5.0152,5.0155,5.0221,0,0,5.0165,5.0167,0,0,0,0,0,0,0,0,5.0076,5.0082,5.0124,5.0123,5.0122,5.0142,5.0145,5.0187,5.0128,5.0125,5.0122,5.012,5.0149,5.0152,5.0163,5.0222,5.0223,5.0166,5.0167,5.0169,5.017,0,0,0,0,0,0,0,5.0074,5.008,5.015,5.0124,5.0123,5.0112,5.0115,5.0153,5.0149,5.0125,5.0122,5.0126,5.0148,5.016,5.0163,5.0224,5.0165,5.0168,5.017,5.0172,5.0338,5.0341,0,0,0,0,0,0,5.0074,5.0079,5.0149,5.0151,5.0093,5.0115,5.0119,5.0138,5.0149,5.0148,5.0128,5.0124,5.0156,5.016,5.0164,5.0242,5.0169,5.0172,5.0174,5.0336,5.0339,5.0342,0,0,0,0,0,0,5.0072,5.008,5.0148,5.0114,5.0122,5.012,5.0141,5.0139,5.0151,5.0151,5.015,5.0141,5.0154,5.016,5.0207,5.0242,5.0173,5.0176,5.0333,5.0337,5.034,5.0397,0,0,0,0,0,0,5.0069,5.008,5.0105,5.0115,5.0124,5.0192,5.0143,5.0142,5.0157,5.0152,5.0163,5.0163,5.0153,5.0203,5.0211,5.0245,5.0179,5.033,5.0335,5.0339,5.0392,5.0403,5.0411,0,0,0,0,0,5.0066,5.0119,5.0107,5.0116,5.0156,5.0194,5.0199,5.0187,5.016,5.0185,5.0186,5.0162,5.0237,5.0208,5.0216,5.0253,5.0327,5.0333,5.0339,5.0388,5.0401,5.0411,0,0,0,0,0,0,5.0112,5.012,5.0106,5.0165,5.0179,5.0187,5.0218,5.0201,5.0222,5.0216,5.02,5.0203,5.0254,5.0258,5.0225,5.0317,5.0278,5.0285,5.0312,5.0324,5.0334,5.0332,5.0181,0,0,0,0,0,5.0129,5.0161,5.0166,5.0217,5.0225,5.022,5.0236,5.0227,5.024,5.0246,5.0249,5.0263,5.0289,5.0307,5.0331,5.0393,5.0395,5.0422,5.0432,5.0439,5.0446,5.0479,5.0492,5.036,5.036,5.036,0,0,5.0165,5.0173,5.0194,5.0226,5.0236,5.0268,5.0226,5.0261,5.0284,5.025,5.0296,5.03,5.0313,5.0369,5.0393,5.0373,5.0483,5.0446,5.0453,5.0455,5.0486,5.0499,5.051,5.0364,5.0363,5.0362,0,0,5.0246,5.0256,5.03,5.0311,5.0327,5.0324,5.0335,5.0345,5.0346,5.0392,5.0368,5.0395,5.0441,5.0452,5.0464,5.055,5.053,5.0559,5.0608,5.0641,5.0651,5.066,5.0692,5.0703,5.0565,5.0566,5.0566,0,5.0288,5.0336,5.0324,5.0362,5.0377,5.0349,5.0394,5.0405,5.0427,5.0438,5.0416,5.0474,5.0481,5.0539,5.056,5.0571,5.0582,5.0557,5.0651,5.066,5.0668,5.0698,5.071,5.0569,5.0569,5.0568,5.0568,0,5.0387,5.0421,5.0454,5.0479,5.0498,5.0538,5.0532,5.0552,5.0541,5.054,5.0587,5.0595,5.0621,5.0634,5.0622,5.069,5.0678,5.0654,5.0614,5.0685,5.0712,5.0723,5.0574,5.0573,5.0572,5.0571,0,0,5.0498,5.0516,5.0528,5.054,5.0556,5.0581,5.0621,5.0647,5.0665,5.0682,5.0714,5.0755,5.0733,5.0746,5.0736,5.0765,5.0833,5.0737,5.0737,5.0755,5.0909,5.0927,5.094,5.082,5.0822,5.0824,5.0907,0,5.0579,5.0649,5.064,5.0706,5.0737,5.0712,5.0746,5.0759,5.076,5.0786,5.0785,5.0814,5.0783,5.0791,5.0819,5.0819,5.0864,5.0813,5.0849,5.0851,5.0847,5.0954,5.0973,5.1052,5.0918,5.092,5.0921,0,5.0684,5.0706,5.0776,5.0788,5.0801,5.0832,5.0856,5.0881,5.0896,5.0894,5.091,5.0894,5.0933,5.0893,5.0947,5.0912,5.0927,5.0929,5.0932,5.0935,5.089,5.096,5.1077,5.1089,5.0938,5.0937,5.0935,0,5.0758,5.0805,5.0854,5.0864,5.0879,5.0902,5.0909,5.0921,5.0938,5.0958,5.0969,5.0994,5.1007,5.1026,5.1018,5.0989,5.1073,5.1032,5.1072,5.1072,5.109,5.1089,5.1211,5.11,5.11,5.1099,5.1099,0,5.085,5.0894,5.0887,5.0917,5.0965,5.0954,5.1002,5.1006,5.1017,5.1047,5.1025,5.1053,5.104,5.1067,5.1061,5.1106,5.1112,5.1111,5.1109,5.1113,5.1114,5.1122,5.1117,5.1102,5.1102,5.1101,5.1101,0,5.0941,5.0939,5.099,5.1,5.1004,5.1039,5.1048,5.1075,5.1075,5.1112,5.112,5.1118,5.1149,5.1143,5.1176,5.1171,5.1228,5.1219,5.1224,5.1222,5.1262,5.1259,5.1394,5.1411,5.1289,5.129,5.1291,0,5.1001,5.1034,5.1049,5.1068,5.1077,5.1108,5.1125,5.1115,5.1134,5.1153,5.1179,5.1208,5.123,5.128,5.1281,5.1307,5.1298,5.1344,5.1301,5.1305,5.1299,5.1297,5.13,5.1352,5.1353,5.1354,5.1355,0,5.1106,5.1103,5.113,5.1157,5.1178,5.1198,5.1216,5.1233,5.1224,5.1246,5.1278,5.1296,5.133,5.1359,5.1383,5.1389,5.1371,5.1369,5.1379,5.1384,5.1386,5.1386,5.1247,5.1366,5.1365,5.1364,5.1363,5.1363,5.1183,5.1212,5.1227,5.1258,5.127,5.1288,5.1315,5.1318,5.1344,5.1372,5.1364,5.1401,5.1414,5.1444,5.1454,5.1481,5.1464,5.1479,5.1483,5.1487,5.1492,5.1381,5.1485,5.1485,5.1485,5.1485,5.1484,0,5.1288,5.1297,5.1325,5.1351,5.1375,5.1357,5.1376,5.1397,5.143,5.1444,5.1468,5.1504,5.1532,5.1536,5.1562,5.1584,5.1576,5.1591,5.1589,5.1591,5.1506,5.1494,5.1597,5.1597,5.1597,5.1597,5.1597,5.1597,5.1345,5.1393,5.1392,5.1446,5.1454,5.1491,5.1503,5.1519,5.1531,5.1573,5.1597,5.1599,5.161,5.1637,5.1662,5.1662,5.1673,5.1691,5.1688,5.1608,5.1597,5.1586,5.1575,5.1693,5.1693,5.1771,5.1772,5.1772]}]]